Weather History for KSUW - February, 2013

Change the Weather History Date:

Thursday, February 28, 2013

  Actual Average (KDLH) Record (KDLH)
Temperature  
Mean Temperature 26 °F 20 °F  
Max Temperature 30 °F 28 °F 53 °F (1932)
Min Temperature 21 °F 11 °F -26 °F (1962)
Degree Days  
Heating Degree Days 39 45  
Month to date heating degree days 1399  
Since 1 July heating degree days 6867  
Cooling Degree Days 0 0  
Month to date cooling degree days 0  
Year to date cooling degree days 0  
Moisture  
Dew Point 18 °F    
Average Humidity 70    
Maximum Humidity 77    
Minimum Humidity 60    
Precipitation  
Precipitation 0.00 in 0.04 in 0.70 in (1948)
Month to date precipitation 0.81  
Year to date precipitation 1.77  
Snow  
Snow 0.00 in 0.50 in 13.00 in (1948)
Month to date snowfall 12.4  
Since 1 July snowfall 65.6  
Snow Depth -    
Sea Level Pressure  
Sea Level Pressure 30.20 in    
Wind  
Wind Speed 9 mph (ENE)    
Max Wind Speed 15 mph    
Max Gust Speed 22 mph    
Visibility 10 miles    
Events Snow    
T = Trace of Precipitation, MM = Missing Value Source: NWS Daily Summary

Daily Weather History Graph

Daily Weather History Graph

Search for Another Location

Airport or City:

Trip Planner

Search our weather history database for the weather conditions in past years. The results will help you decide how hot, cold, wet, or windy it might be!

Date:

Astronomy

Feb. 28, 2013 Rise Set
Actual Time 6:49 AM CST 5:53 PM CST
Civil Twilight 6:18 AM CST 6:23 PM CST
Nautical Twilight 5:43 AM CST 6:58 PM CST
Astronomical Twilight 5:08 AM CST 7:33 PM CST
Moon 9:37 PM CST (2/28) 7:44 AM CST (2/28)
Length of Visible Light 12h 04m
Length of Day
11h 03m
Waning Gibbous, 90% of the Moon is Illuminated
Feb 28
Waning Gibbous
Mar 4
Last Quarter
Mar 11
New
Mar 19
First Quarter
Mar 27
Full

Hourly Weather History & Observations

Time (CST) Temp. Windchill Dew Point Humidity Pressure Visibility Wind Dir Wind Speed Gust Speed Precip Events Conditions
12:15 AM 30.2 °F 21.3 °F 22.8 °F 74% 30.07 in 10.0 mi NE 10.4 mph - N/A   Overcast
12:35 AM 29.8 °F 22.2 °F 21.9 °F 72% 30.07 in 10.0 mi NE 8.1 mph - N/A   Overcast
1:15 AM 29.5 °F 22.5 °F 21.0 °F 71% 30.07 in 10.0 mi NE 6.9 mph - N/A   Overcast
1:35 AM 29.3 °F 22.3 °F 21.4 °F 72% 30.08 in 10.0 mi NE 6.9 mph - N/A   Overcast
1:55 AM 29.1 °F 21.3 °F 21.4 °F 73% 30.08 in 10.0 mi NE 8.1 mph - N/A   Overcast
2:15 AM 29.1 °F 20.0 °F 21.2 °F 72% 30.09 in 10.0 mi NE 10.4 mph - N/A   Overcast
2:35 AM 29.1 °F 20.6 °F 20.7 °F 71% 30.09 in 10.0 mi NE 9.2 mph - N/A   Overcast
2:55 AM 28.9 °F 21.1 °F 19.9 °F 69% 30.09 in 10.0 mi NE 8.1 mph - N/A   Overcast
3:15 AM 28.8 °F 21.7 °F 19.9 °F 70% 30.10 in 10.0 mi NE 6.9 mph - N/A   Overcast
3:55 AM 28.0 °F 19.3 °F 19.8 °F 71% 30.11 in 10.0 mi NE 9.2 mph - N/A   Overcast
4:35 AM 27.9 °F 19.8 °F 19.8 °F 72% 30.12 in 10.0 mi NE 8.1 mph - N/A   Overcast
4:55 AM 27.5 °F 20.2 °F 19.9 °F 73% 30.13 in 10.0 mi NNE 6.9 mph - N/A   Overcast
5:15 AM 27.5 °F 18.6 °F 19.4 °F 72% 30.14 in 10.0 mi NNE 9.2 mph - N/A   Overcast
5:35 AM 27.5 °F 20.2 °F 18.9 °F 70% 30.14 in 10.0 mi NNE 6.9 mph - N/A   Overcast
5:55 AM 27.3 °F 18.4 °F 18.9 °F 70% 30.14 in 10.0 mi NNE 9.2 mph - N/A   Overcast
6:15 AM 27.1 °F 18.9 °F 18.5 °F 70% 30.15 in 10.0 mi NNE 8.1 mph - N/A   Overcast
6:35 AM 27.0 °F 18.0 °F 18.5 °F 70% 30.16 in 10.0 mi NNE 9.2 mph - N/A   Overcast
6:55 AM 26.6 °F 16.8 °F 18.5 °F 71% 30.16 in 10.0 mi NE 10.4 mph - N/A   Overcast
7:15 AM 26.6 °F 17.5 °F 18.5 °F 71% 30.17 in 10.0 mi NNE 9.2 mph - N/A   Overcast
7:35 AM 26.6 °F 17.5 °F 18.5 °F 71% 30.17 in 10.0 mi NE 9.2 mph - N/A   Overcast
7:55 AM 26.6 °F 17.5 °F 18.5 °F 71% 30.18 in 10.0 mi NE 9.2 mph - N/A   Overcast
8:15 AM 26.6 °F 16.8 °F 18.9 °F 73% 30.18 in 10.0 mi NE 10.4 mph - N/A   Overcast
8:35 AM 26.4 °F 18.0 °F 18.1 °F 71% 30.19 in 10.0 mi NE 8.1 mph 17.3 mph N/A   Overcast
8:55 AM 26.4 °F 15.5 °F 18.3 °F 71% 30.19 in 10.0 mi NE 12.7 mph 18.4 mph N/A   Overcast
9:15 AM 26.6 °F 16.8 °F 18.0 °F 70% 30.19 in 10.0 mi NE 10.4 mph 16.1 mph N/A   Overcast
9:35 AM 26.6 °F 15.7 °F 17.6 °F 69% 30.19 in 10.0 mi NE 12.7 mph - N/A   Overcast
9:55 AM 26.6 °F 16.8 °F 17.4 °F 68% 30.20 in 10.0 mi NE 10.4 mph 16.1 mph N/A   Overcast
10:15 AM 26.6 °F 16.2 °F 17.2 °F 68% 30.21 in 10.0 mi NE 11.5 mph 17.3 mph N/A   Overcast
10:35 AM 26.4 °F 16.0 °F 16.7 °F 67% 30.21 in 10.0 mi NE 11.5 mph 18.4 mph N/A   Overcast
10:55 AM 26.6 °F 15.7 °F 16.5 °F 66% 30.21 in 10.0 mi NE 12.7 mph 18.4 mph N/A Snow Light Snow
11:15 AM 26.4 °F 16.0 °F 16.2 °F 65% 30.22 in 10.0 mi NNE 11.5 mph 17.3 mph N/A   Overcast
11:35 AM 26.6 °F 15.2 °F 16.7 °F 66% 30.22 in 10.0 mi NE 13.8 mph 17.3 mph N/A   Overcast
11:55 AM 27.0 °F 16.7 °F 17.2 °F 67% 30.22 in 10.0 mi NE 11.5 mph 18.4 mph N/A   Overcast
12:15 PM 27.5 °F 18.0 °F 17.8 °F 67% 30.22 in 10.0 mi NE 10.4 mph 21.9 mph N/A   Overcast
12:35 PM 28.0 °F 17.5 °F 18.3 °F 67% 30.22 in 10.0 mi NE 12.7 mph 17.3 mph N/A   Overcast
12:55 PM 28.4 °F 18.0 °F 17.8 °F 64% 30.22 in 10.0 mi ENE 12.7 mph 18.4 mph N/A   Overcast
1:15 PM 28.2 °F 18.3 °F 17.8 °F 65% 30.22 in 10.0 mi NE 11.5 mph 18.4 mph N/A   Overcast
1:35 PM 29.1 °F 17.9 °F 17.8 °F 63% 30.22 in 10.0 mi ENE 15.0 mph 18.4 mph N/A   Scattered Clouds
1:55 PM 29.3 °F 18.2 °F 17.8 °F 62% 30.22 in 10.0 mi East 15.0 mph 19.6 mph N/A   Clear
2:15 PM 29.8 °F 19.8 °F 17.6 °F 60% 30.21 in 10.0 mi East 12.7 mph 20.7 mph N/A   Clear
2:35 PM 28.9 °F 18.2 °F 17.2 °F 62% 30.22 in 10.0 mi East 13.8 mph 20.7 mph N/A   Clear
2:55 PM 29.3 °F 18.6 °F 17.4 °F 61% 30.22 in 10.0 mi ENE 13.8 mph 20.7 mph N/A   Clear
3:15 PM 28.4 °F 17.5 °F 17.4 °F 63% 30.23 in 10.0 mi ENE 13.8 mph - N/A   Clear
3:35 PM 28.4 °F 18.0 °F 17.8 °F 64% 30.23 in 10.0 mi ENE 12.7 mph 18.4 mph N/A   Clear
3:55 PM 28.2 °F 18.3 °F 18.3 °F 66% 30.23 in 10.0 mi ENE 11.5 mph 18.4 mph N/A   Clear
4:15 PM 27.9 °F 18.4 °F 18.5 °F 68% 30.23 in 10.0 mi ENE 10.4 mph - N/A   Clear
4:35 PM 27.3 °F 17.7 °F 18.1 °F 68% 30.24 in 10.0 mi East 10.4 mph 18.4 mph N/A   Clear
4:55 PM 26.8 °F 17.1 °F 17.8 °F 69% 30.24 in 10.0 mi ENE 10.4 mph - N/A   Clear
5:15 PM 26.2 °F 17.1 °F 18.1 °F 71% 30.24 in 10.0 mi East 9.2 mph 17.3 mph N/A   Clear
6:15 PM 25.3 °F 16.0 °F 17.6 °F 72% 30.26 in 10.0 mi ENE 9.2 mph 16.1 mph N/A   Clear
6:35 PM 25.3 °F 16.0 °F 17.6 °F 72% 30.26 in 10.0 mi ENE 9.2 mph 18.4 mph N/A   Clear
6:55 PM 25.2 °F 15.1 °F 17.6 °F 73% 30.26 in 10.0 mi ENE 10.4 mph - N/A   Clear
7:15 PM 25.2 °F 15.7 °F 17.6 °F 73% 30.26 in 10.0 mi ENE 9.2 mph - N/A   Clear
7:35 PM 24.8 °F 16.1 °F 17.4 °F 74% 30.26 in 10.0 mi East 8.1 mph - N/A   Clear
7:55 PM 25.2 °F 15.7 °F 17.4 °F 72% 30.27 in 10.0 mi East 9.2 mph - N/A   Scattered Clouds
8:15 PM 23.9 °F 15.8 °F 17.2 °F 76% 30.27 in 10.0 mi ESE 6.9 mph - N/A   Overcast
8:35 PM 23.0 °F 14.7 °F 16.7 °F 77% 30.27 in 10.0 mi East 6.9 mph - N/A   Mostly Cloudy
8:55 PM 23.5 °F 15.4 °F 16.3 °F 74% 30.28 in 10.0 mi East 6.9 mph - N/A   Overcast
9:15 PM 23.0 °F 13.1 °F 15.8 °F 74% 30.28 in 10.0 mi East 9.2 mph - N/A   Scattered Clouds
9:35 PM 23.0 °F 13.1 °F 15.6 °F 73% 30.28 in 10.0 mi East 9.2 mph - N/A   Scattered Clouds
9:55 PM 22.6 °F 14.3 °F 15.6 °F 74% 30.29 in 10.0 mi East 6.9 mph - N/A   Mostly Cloudy
10:15 PM 22.6 °F 15.3 °F 14.9 °F 72% 30.29 in 10.0 mi East 5.8 mph - N/A   Mostly Cloudy
10:35 PM 23.0 °F 14.7 °F 14.9 °F 71% 30.29 in 10.0 mi East 6.9 mph - N/A   Overcast
10:55 PM 23.0 °F 15.8 °F 14.5 °F 70% 30.29 in 10.0 mi East 5.8 mph - N/A   Overcast
11:15 PM 22.5 °F 15.1 °F 14.0 °F 70% 30.29 in 10.0 mi East 5.8 mph - N/A   Overcast
11:35 PM 22.1 °F 14.7 °F 13.5 °F 69% 30.29 in 10.0 mi East 5.8 mph - N/A   Overcast
11:55 PM 21.9 °F 13.4 °F 12.9 °F 68% 30.29 in 10.0 mi East 6.9 mph - N/A   Mostly Cloudy